User: anonymous   Login
Location: Unspecified
(0.0000°N, 0.0000°E)
Time: 21:08:52
(UTC+00:00)
Language:

Aussat K2 - Orbit

View from above orbital plane
View from above orbital plane
View from above satellite
View from above satellite

Ground track
Ground track

The orbit data is extracted from the following two-line orbital elements,

1 16275U 85109C   14295.92745689 -.00000026  00000-0  00000+0 0  5348
2 16275 014.7356 019.0956 0006350 180.3371 239.7967 00.99932126 95554
Epoch (UTC): 22 October 2014 22:15:32
Eccentricity: 0.0006350
inclination: 14.7356°
perigee height: 35855 km
apogee height: 35908 km
right ascension of ascending node: 19.0956°
argument of perigee: 180.3371°
revolutions per day: 0.99932126
mean anomaly at epoch: 239.7967°
orbit number at epoch: 9555

The dashed part of the orbit path shows where the satellite is in the earth's shadow,  

DLR